owner,sensor,date,latitude,longitude,vertical_datum,wind_speed,wind_to_direction,wind_speed_of_gust,qcFlag 
COMPS,ioos:station:USF.COMPS:ARP:1,2014-07-01T00:00:00Z,28.4330,-82.6670,10.0,2.16,322.36,4.21,'1111122,1111122,1111122' 
COMPS,ioos:station:USF.COMPS:ARP:1,2014-07-01T00:06:00Z,28.4330,-82.6670,10.0,1.91,328.47,3.62,'1111122,1111122,1111122' 
COMPS,ioos:station:USF.COMPS:ARP:1,2014-07-01T00:12:00Z,28.4330,-82.6670,10.0,1.1,358.76,3.13,'1111122,1111122,1111122' 
COMPS,ioos:station:USF.COMPS:ARP:1,2014-07-01T00:18:00Z,28.4330,-82.6670,10.0,4.71,77.96,6.95,'1111122,1111122,1111122' 
COMPS,ioos:station:USF.COMPS:ARP:1,2014-07-01T00:24:00Z,28.4330,-82.6670,10.0,4.85,103.28,8.91,'1111122,1111122,1111122' 
COMPS,ioos:station:USF.COMPS:ARP:1,2014-07-01T00:30:00Z,28.4330,-82.6670,10.0,4.29,106.77,6.37,'1111122,1111122,1111122' 
COMPS,ioos:station:USF.COMPS:ARP:1,2014-07-01T00:36:00Z,28.4330,-82.6670,10.0,2.12,122.49,4.01,'1111122,1111122,1111122' 
COMPS,ioos:station:USF.COMPS:ARP:1,2014-07-01T00:42:00Z,28.4330,-82.6670,10.0,1.6,135.76,3.23,'1111122,1111122,1111122' 
COMPS,ioos:station:USF.COMPS:ARP:1,2014-07-01T00:48:00Z,28.4330,-82.6670,10.0,1.63,151.74,2.84,'1111122,1111122,1111122' 
COMPS,ioos:station:USF.COMPS:ARP:1,2014-07-01T00:54:00Z,28.4330,-82.6670,10.0,1.06,120.85,2.25,'1111122,1111122,1111122' 
COMPS,ioos:station:USF.COMPS:ARP:1,2014-07-01T01:00:00Z,28.4330,-82.6670,10.0,0.95,96.38,1.86,'1111122,1111122,1111122' 
COMPS,ioos:station:USF.COMPS:ARP:1,2014-07-01T01:06:00Z,28.4330,-82.6670,10.0,0.89,248.03,2.54,'1111122,1111122,1111122' 
COMPS,ioos:station:USF.COMPS:ARP:1,2014-07-01T01:12:00Z,28.4330,-82.6670,10.0,1.7,116.65,3.33,'1111122,1111122,1111122' 
COMPS,ioos:station:USF.COMPS:ARP:1,2014-07-01T01:18:00Z,28.4330,-82.6670,10.0,1.57,145.45,2.84,'1111122,1111122,1111122' 
COMPS,ioos:station:USF.COMPS:ARP:1,2014-07-01T01:24:00Z,28.4330,-82.6670,10.0,1.58,183.11,2.84,'1111122,1111122,1111122' 
COMPS,ioos:station:USF.COMPS:ARP:1,2014-07-01T01:30:00Z,28.4330,-82.6670,10.0,2.88,113.08,7.05,'1111122,1111122,1111122' 
COMPS,ioos:station:USF.COMPS:ARP:1,2014-07-01T01:36:00Z,28.4330,-82.6670,10.0,7.63,87.15,13.42,'1111122,1111122,1111122' 
COMPS,ioos:station:USF.COMPS:ARP:1,2014-07-01T01:42:00Z,28.4330,-82.6670,10.0,4.11,118.67,7.15,'1111122,1111122,1111122' 
COMPS,ioos:station:USF.COMPS:ARP:1,2014-07-01T01:48:00Z,28.4330,-82.6670,10.0,2.97,214.63,5.48,'1111122,1111122,1111122' 
COMPS,ioos:station:USF.COMPS:ARP:1,2014-07-01T01:54:00Z,28.4330,-82.6670,10.0,7.73,273.04,12.54,'1111122,1111122,1111122' 
COMPS,ioos:station:USF.COMPS:ARP:1,2014-07-01T02:00:00Z,28.4330,-82.6670,10.0,5.55,281.1,7.93,'1111122,1111122,1111122' 
COMPS,ioos:station:USF.COMPS:ARP:1,2014-07-01T02:06:00Z,28.4330,-82.6670,10.0,3.6,312.26,7.44,'1111122,1111122,1111122' 
COMPS,ioos:station:USF.COMPS:ARP:1,2014-07-01T02:12:00Z,28.4330,-82.6670,10.0,1.68,183.89,2.64,'1111122,1111122,1111122' 
COMPS,ioos:station:USF.COMPS:ARP:1,2014-07-01T02:18:00Z,28.4330,-82.6670,10.0,3.7,292.0,8.91,'1111122,1111122,1111122' 
COMPS,ioos:station:USF.COMPS:ARP:1,2014-07-01T02:24:00Z,28.4330,-82.6670,10.0,7.34,304.59,11.46,'1111122,1111122,1111122' 
COMPS,ioos:station:USF.COMPS:ARP:1,2014-07-01T02:30:00Z,28.4330,-82.6670,10.0,5.34,293.69,8.42,'1111122,1111122,1111122' 
COMPS,ioos:station:USF.COMPS:ARP:1,2014-07-01T02:36:00Z,28.4330,-82.6670,10.0,2.66,296.11,4.8,'1111122,1111122,1111122' 
COMPS,ioos:station:USF.COMPS:ARP:1,2014-07-01T02:42:00Z,28.4330,-82.6670,10.0,0.79,93.99,1.95,'1111122,1111122,1111122' 
COMPS,ioos:station:USF.COMPS:ARP:1,2014-07-01T02:48:00Z,28.4330,-82.6670,10.0,0.43,35.01,0.97,'1111122,1111122,1111122' 
COMPS,ioos:station:USF.COMPS:ARP:1,2014-07-01T02:54:00Z,28.4330,-82.6670,10.0,0.69,12.52,1.27,'1111122,1111122,1111122' 
COMPS,ioos:station:USF.COMPS:ARP:1,2014-07-01T03:00:00Z,28.4330,-82.6670,10.0,0.73,99.18,1.17,'1111122,1111122,1111122' 
COMPS,ioos:station:USF.COMPS:ARP:1,2014-07-01T03:06:00Z,28.4330,-82.6670,10.0,0.86,146.59,1.37,'1111122,1111122,1111122' 
COMPS,ioos:station:USF.COMPS:ARP:1,2014-07-01T03:12:00Z,28.4330,-82.6670,10.0,0.15,165.83,0.78,'1111122,1111122,1111122' 
COMPS,ioos:station:USF.COMPS:ARP:1,2014-07-01T03:18:00Z,28.4330,-82.6670,10.0,0.53,87.43,0.78,'1111122,1111122,1111122' 
COMPS,ioos:station:USF.COMPS:ARP:1,2014-07-01T03:24:00Z,28.4330,-82.6670,10.0,0.66,84.43,1.27,'1111122,1111122,1111122' 
COMPS,ioos:station:USF.COMPS:ARP:1,2014-07-01T03:30:00Z,28.4330,-82.6670,10.0,0.78,100.9,1.17,'1111122,1111122,1111122' 
COMPS,ioos:station:USF.COMPS:ARP:1,2014-07-01T03:36:00Z,28.4330,-82.6670,10.0,0.86,86.72,1.17,'1111122,1111122,1111122' 
COMPS,ioos:station:USF.COMPS:ARP:1,2014-07-01T03:42:00Z,28.4330,-82.6670,10.0,0.96,80.22,1.17,'1111122,1111122,1111122' 
COMPS,ioos:station:USF.COMPS:ARP:1,2014-07-01T03:48:00Z,28.4330,-82.6670,10.0,0.9,76.53,1.07,'1111122,1111122,1111122' 
COMPS,ioos:station:USF.COMPS:ARP:1,2014-07-01T03:54:00Z,28.4330,-82.6670,10.0,0.66,82.6,0.88,'1111122,1111122,1111122' 
COMPS,ioos:station:USF.COMPS:ARP:1,2014-07-01T04:00:00Z,28.4330,-82.6670,10.0,0.5,91.39,0.97,'1111122,1111122,1111122' 
COMPS,ioos:station:USF.COMPS:ARP:1,2014-07-01T04:06:00Z,28.4330,-82.6670,10.0,0.43,102.44,0.88,'1111122,1111122,1111122' 
COMPS,ioos:station:USF.COMPS:ARP:1,2014-07-01T04:12:00Z,28.4330,-82.6670,10.0,0.74,99.15,1.17,'1111122,1111122,1111122' 
COMPS,ioos:station:USF.COMPS:ARP:1,2014-07-01T04:18:00Z,28.4330,-82.6670,10.0,0.45,96.53,0.97,'1111122,1111122,1111122' 
COMPS,ioos:station:USF.COMPS:ARP:1,2014-07-01T04:24:00Z,28.4330,-82.6670,10.0,1.23,106.85,1.66,'1111122,1111122,1111122' 
COMPS,ioos:station:USF.COMPS:ARP:1,2014-07-01T04:30:00Z,28.4330,-82.6670,10.0,1.28,96.9,1.76,'1111122,1111122,1111122' 
COMPS,ioos:station:USF.COMPS:ARP:1,2014-07-01T04:36:00Z,28.4330,-82.6670,10.0,0.94,81.97,1.27,'1111122,1111122,1111122' 
COMPS,ioos:station:USF.COMPS:ARP:1,2014-07-01T04:42:00Z,28.4330,-82.6670,10.0,0.57,74.14,0.88,'1111122,1111122,1111122' 
COMPS,ioos:station:USF.COMPS:ARP:1,2014-07-01T04:48:00Z,28.4330,-82.6670,10.0,0.89,84.29,1.37,'1111122,1111122,1111122' 
COMPS,ioos:station:USF.COMPS:ARP:1,2014-07-01T04:54:00Z,28.4330,-82.6670,10.0,0.82,94.75,1.56,'1111122,1111122,1111122' 
COMPS,ioos:station:USF.COMPS:ARP:1,2014-07-01T05:00:00Z,28.4330,-82.6670,10.0,1.05,93.19,1.37,'1111122,1111122,1111122' 
COMPS,ioos:station:USF.COMPS:ARP:1,2014-07-01T05:06:00Z,28.4330,-82.6670,10.0,0.98,82.16,1.37,'1111122,1111122,1111122' 
COMPS,ioos:station:USF.COMPS:ARP:1,2014-07-01T05:12:00Z,28.4330,-82.6670,10.0,1.5,89.8,1.95,'1111122,1111122,1111122' 
COMPS,ioos:station:USF.COMPS:ARP:1,2014-07-01T05:18:00Z,28.4330,-82.6670,10.0,1.36,82.95,1.66,'1111122,1111122,1111122' 
COMPS,ioos:station:USF.COMPS:ARP:1,2014-07-01T05:24:00Z,28.4330,-82.6670,10.0,1.38,82.03,1.86,'1111122,1111122,1111122' 
COMPS,ioos:station:USF.COMPS:ARP:1,2014-07-01T05:30:00Z,28.4330,-82.6670,10.0,1.53,88.48,2.05,'1111122,1111122,1111122' 
COMPS,ioos:station:USF.COMPS:ARP:1,2014-07-01T05:36:00Z,28.4330,-82.6670,10.0,1.48,87.61,2.05,'1111122,1111122,1111122' 
COMPS,ioos:station:USF.COMPS:ARP:1,2014-07-01T05:42:00Z,28.4330,-82.6670,10.0,0.89,87.17,1.37,'1111122,1111122,1111122' 
COMPS,ioos:station:USF.COMPS:ARP:1,2014-07-01T05:48:00Z,28.4330,-82.6670,10.0,1.12,97.22,1.27,'1111122,1111122,1111122' 
COMPS,ioos:station:USF.COMPS:ARP:1,2014-07-01T05:54:00Z,28.4330,-82.6670,10.0,1.3,100.95,1.56,'1111122,1111122,1111122' 
COMPS,ioos:station:USF.COMPS:ARP:1,2014-07-01T06:00:00Z,28.4330,-82.6670,10.0,1.31,88.15,1.86,'1111122,1111122,1111122' 
COMPS,ioos:station:USF.COMPS:ARP:1,2014-07-01T06:06:00Z,28.4330,-82.6670,10.0,1.02,82.06,1.37,'1111122,1111122,1111122' 
COMPS,ioos:station:USF.COMPS:ARP:1,2014-07-01T06:12:00Z,28.4330,-82.6670,10.0,1.17,82.55,1.46,'1111122,1111122,1111122' 
COMPS,ioos:station:USF.COMPS:ARP:1,2014-07-01T06:18:00Z,28.4330,-82.6670,10.0,1.51,95.25,1.95,'1111122,1111122,1111122' 
COMPS,ioos:station:USF.COMPS:ARP:1,2014-07-01T06:24:00Z,28.4330,-82.6670,10.0,1.29,85.71,1.66,'1111122,1111122,1111122' 
COMPS,ioos:station:USF.COMPS:ARP:1,2014-07-01T06:30:00Z,28.4330,-82.6670,10.0,0.87,91.0,1.46,'1111122,1111122,1111122' 
COMPS,ioos:station:USF.COMPS:ARP:1,2014-07-01T06:36:00Z,28.4330,-82.6670,10.0,0.5,92.54,0.97,'1111122,1111122,1111122' 
COMPS,ioos:station:USF.COMPS:ARP:1,2014-07-01T06:42:00Z,28.4330,-82.6670,10.0,0.48,98.51,0.88,'1111122,1111122,1111122' 
COMPS,ioos:station:USF.COMPS:ARP:1,2014-07-01T06:48:00Z,28.4330,-82.6670,10.0,0.46,95.07,0.88,'1111122,1111122,1111122' 
COMPS,ioos:station:USF.COMPS:ARP:1,2014-07-01T06:54:00Z,28.4330,-82.6670,10.0,0.11,83.26,0.39,'1111122,1111122,1111122' 
COMPS,ioos:station:USF.COMPS:ARP:1,2014-07-01T07:00:00Z,28.4330,-82.6670,10.0,0.01,101.71,0.19,'1111122,1111122,1111122' 
COMPS,ioos:station:USF.COMPS:ARP:1,2014-07-01T07:06:00Z,28.4330,-82.6670,10.0,0.47,87.82,0.88,'1111122,1111122,1111122' 
COMPS,ioos:station:USF.COMPS:ARP:1,2014-07-01T07:12:00Z,28.4330,-82.6670,10.0,0.38,85.09,0.68,'1111122,1111122,1111122' 
COMPS,ioos:station:USF.COMPS:ARP:1,2014-07-01T07:18:00Z,28.4330,-82.6670,10.0,0.01,222.5,0.19,'1111122,1111122,1111122' 
COMPS,ioos:station:USF.COMPS:ARP:1,2014-07-01T07:30:00Z,28.4330,-82.6670,10.0,0.14,282.01,0.58,'1111122,1111122,1111122' 
COMPS,ioos:station:USF.COMPS:ARP:1,2014-07-01T07:36:00Z,28.4330,-82.6670,10.0,1.04,268.65,1.56,'1111122,1111122,1111122' 
COMPS,ioos:station:USF.COMPS:ARP:1,2014-07-01T07:42:00Z,28.4330,-82.6670,10.0,0.89,261.73,1.76,'1111122,1111122,1111122' 
COMPS,ioos:station:USF.COMPS:ARP:1,2014-07-01T07:48:00Z,28.4330,-82.6670,10.0,0.28,80.49,0.58,'1111122,1111122,1111122' 
COMPS,ioos:station:USF.COMPS:ARP:1,2014-07-01T07:54:00Z,28.4330,-82.6670,10.0,0.59,90.13,0.97,'1111122,1111122,1111122' 
COMPS,ioos:station:USF.COMPS:ARP:1,2014-07-01T08:00:00Z,28.4330,-82.6670,10.0,0.42,160.57,0.97,'1111122,1111122,1111122' 
COMPS,ioos:station:USF.COMPS:ARP:1,2014-07-01T08:06:00Z,28.4330,-82.6670,10.0,0.57,262.8,0.68,'1111122,1111122,1111122' 
COMPS,ioos:station:USF.COMPS:ARP:1,2014-07-01T08:12:00Z,28.4330,-82.6670,10.0,0.02,267.59,0.39,'1111122,1111122,1111122' 
COMPS,ioos:station:USF.COMPS:ARP:1,2014-07-01T08:24:00Z,28.4330,-82.6670,10.0,0.51,91.44,0.88,'1111122,1111122,1111122' 
COMPS,ioos:station:USF.COMPS:ARP:1,2014-07-01T08:30:00Z,28.4330,-82.6670,10.0,0.04,90.14,0.49,'1111122,1111122,1111122' 
COMPS,ioos:station:USF.COMPS:ARP:1,2014-07-01T08:36:00Z,28.4330,-82.6670,10.0,0.05,109.3,0.49,'1111122,1111122,1111122' 
COMPS,ioos:station:USF.COMPS:ARP:1,2014-07-01T08:42:00Z,28.4330,-82.6670,10.0,0.42,127.53,0.88,'1111122,1111122,1111122' 
COMPS,ioos:station:USF.COMPS:ARP:1,2014-07-01T09:00:00Z,28.4330,-82.6670,10.0,0.3,86.12,0.78,'1111122,1111122,1111122' 
COMPS,ioos:station:USF.COMPS:ARP:1,2014-07-01T09:06:00Z,28.4330,-82.6670,10.0,0.41,76.85,0.78,'1111122,1111122,1111122' 
COMPS,ioos:station:USF.COMPS:ARP:1,2014-07-01T09:18:00Z,28.4330,-82.6670,10.0,0.27,74.66,0.58,'1111122,1111122,1111122' 
COMPS,ioos:station:USF.COMPS:ARP:1,2014-07-01T09:24:00Z,28.4330,-82.6670,10.0,0.23,84.59,0.68,'1111122,1111122,1111122' 
COMPS,ioos:station:USF.COMPS:ARP:1,2014-07-01T09:30:00Z,28.4330,-82.6670,10.0,0.54,85.3,0.88,'1111122,1111122,1111122' 
COMPS,ioos:station:USF.COMPS:ARP:1,2014-07-01T09:36:00Z,28.4330,-82.6670,10.0,0.51,78.44,0.78,'1111122,1111122,1111122' 
COMPS,ioos:station:USF.COMPS:ARP:1,2014-07-01T09:42:00Z,28.4330,-82.6670,10.0,0.65,76.59,0.88,'1111122,1111122,1111122' 
COMPS,ioos:station:USF.COMPS:ARP:1,2014-07-01T09:48:00Z,28.4330,-82.6670,10.0,0.85,80.06,1.07,'1111122,1111122,1111122' 
COMPS,ioos:station:USF.COMPS:ARP:1,2014-07-01T09:54:00Z,28.4330,-82.6670,10.0,0.63,88.51,0.97,'1111122,1111122,1111122' 
COMPS,ioos:station:USF.COMPS:ARP:1,2014-07-01T10:00:00Z,28.4330,-82.6670,10.0,1.09,107.61,1.95,'1111122,1111122,1111122' 
COMPS,ioos:station:USF.COMPS:ARP:1,2014-07-01T10:06:00Z,28.4330,-82.6670,10.0,1.03,100.06,1.86,'1111122,1111122,1111122' 
COMPS,ioos:station:USF.COMPS:ARP:1,2014-07-01T10:12:00Z,28.4330,-82.6670,10.0,0.11,91.55,0.68,'1111122,1111122,1111122' 
COMPS,ioos:station:USF.COMPS:ARP:1,2014-07-01T10:18:00Z,28.4330,-82.6670,10.0,0.89,88.29,1.37,'1111122,1111122,1111122' 
COMPS,ioos:station:USF.COMPS:ARP:1,2014-07-01T10:24:00Z,28.4330,-82.6670,10.0,1.52,100.59,1.95,'1111122,1111122,1111122' 
COMPS,ioos:station:USF.COMPS:ARP:1,2014-07-01T10:30:00Z,28.4330,-82.6670,10.0,1.07,89.61,1.66,'1111122,1111122,1111122' 
COMPS,ioos:station:USF.COMPS:ARP:1,2014-07-01T10:36:00Z,28.4330,-82.6670,10.0,0.79,80.97,1.07,'1111122,1111122,1111122' 
COMPS,ioos:station:USF.COMPS:ARP:1,2014-07-01T10:42:00Z,28.4330,-82.6670,10.0,0.38,70.12,0.78,'1111122,1111122,1111122' 
COMPS,ioos:station:USF.COMPS:ARP:1,2014-07-01T10:48:00Z,28.4330,-82.6670,10.0,0.08,84.02,0.29,'1111122,1111122,1111122' 
COMPS,ioos:station:USF.COMPS:ARP:1,2014-07-01T10:54:00Z,28.4330,-82.6670,10.0,0.77,95.94,1.07,'1111122,1111122,1111122' 
COMPS,ioos:station:USF.COMPS:ARP:1,2014-07-01T11:00:00Z,28.4330,-82.6670,10.0,0.77,85.59,1.07,'1111122,1111122,1111122' 
COMPS,ioos:station:USF.COMPS:ARP:1,2014-07-01T11:06:00Z,28.4330,-82.6670,10.0,0.82,84.68,1.17,'1111122,1111122,1111122' 
COMPS,ioos:station:USF.COMPS:ARP:1,2014-07-01T11:12:00Z,28.4330,-82.6670,10.0,0.45,84.38,0.88,'1111122,1111122,1111122' 
COMPS,ioos:station:USF.COMPS:ARP:1,2014-07-01T11:18:00Z,28.4330,-82.6670,10.0,0.49,72.32,0.78,'1111122,1111122,1111122' 
COMPS,ioos:station:USF.COMPS:ARP:1,2014-07-01T11:24:00Z,28.4330,-82.6670,10.0,0.21,46.72,0.68,'1111122,1111122,1111122' 
COMPS,ioos:station:USF.COMPS:ARP:1,2014-07-01T11:30:00Z,28.4330,-82.6670,10.0,0.24,71.03,0.68,'1111122,1111122,1111122' 
COMPS,ioos:station:USF.COMPS:ARP:1,2014-07-01T11:36:00Z,28.4330,-82.6670,10.0,0.33,58.65,1.17,'1111122,1111122,1111122' 
COMPS,ioos:station:USF.COMPS:ARP:1,2014-07-01T11:42:00Z,28.4330,-82.6670,10.0,0.88,66.3,1.56,'1111122,1111122,1111122' 
COMPS,ioos:station:USF.COMPS:ARP:1,2014-07-01T11:48:00Z,28.4330,-82.6670,10.0,1.43,71.08,1.76,'1111122,1111122,1111122' 
COMPS,ioos:station:USF.COMPS:ARP:1,2014-07-01T11:54:00Z,28.4330,-82.6670,10.0,1.63,80.71,1.95,'1111122,1111122,1111122' 
COMPS,ioos:station:USF.COMPS:ARP:1,2014-07-01T12:00:00Z,28.4330,-82.6670,10.0,1.09,78.42,1.37,'1111122,1111122,1111122' 
COMPS,ioos:station:USF.COMPS:ARP:1,2014-07-01T12:06:00Z,28.4330,-82.6670,10.0,1.18,80.86,1.76,'1111122,1111122,1111122' 
COMPS,ioos:station:USF.COMPS:ARP:1,2014-07-01T12:12:00Z,28.4330,-82.6670,10.0,1.5,64.33,1.86,'1111122,1111122,1111122' 
COMPS,ioos:station:USF.COMPS:ARP:1,2014-07-01T12:18:00Z,28.4330,-82.6670,10.0,1.37,70.4,2.15,'1111122,1111122,1111122' 
COMPS,ioos:station:USF.COMPS:ARP:1,2014-07-01T12:24:00Z,28.4330,-82.6670,10.0,1.11,71.36,1.66,'1111122,1111122,1111122' 
COMPS,ioos:station:USF.COMPS:ARP:1,2014-07-01T12:30:00Z,28.4330,-82.6670,10.0,1.47,71.61,1.95,'1111122,1111122,1111122' 
COMPS,ioos:station:USF.COMPS:ARP:1,2014-07-01T12:36:00Z,28.4330,-82.6670,10.0,1.22,72.48,1.95,'1111122,1111122,1111122' 
COMPS,ioos:station:USF.COMPS:ARP:1,2014-07-01T12:42:00Z,28.4330,-82.6670,10.0,1.76,94.35,2.35,'1111122,1111122,1111122' 
COMPS,ioos:station:USF.COMPS:ARP:1,2014-07-01T12:48:00Z,28.4330,-82.6670,10.0,1.54,106.53,2.05,'1111122,1111122,1111122' 
COMPS,ioos:station:USF.COMPS:ARP:1,2014-07-01T12:54:00Z,28.4330,-82.6670,10.0,1.51,97.96,2.15,'1111122,1111122,1111122' 
COMPS,ioos:station:USF.COMPS:ARP:1,2014-07-01T13:00:00Z,28.4330,-82.6670,10.0,1.49,83.95,2.15,'1111122,1111122,1111122' 
COMPS,ioos:station:USF.COMPS:ARP:1,2014-07-01T13:06:00Z,28.4330,-82.6670,10.0,2.07,75.55,2.84,'1111122,1111122,1111122' 
COMPS,ioos:station:USF.COMPS:ARP:1,2014-07-01T13:12:00Z,28.4330,-82.6670,10.0,1.85,67.52,2.45,'1111122,1111122,1111122' 
COMPS,ioos:station:USF.COMPS:ARP:1,2014-07-01T13:18:00Z,28.4330,-82.6670,10.0,2.26,77.04,3.13,'1111122,1111122,1111122' 
COMPS,ioos:station:USF.COMPS:ARP:1,2014-07-01T13:24:00Z,28.4330,-82.6670,10.0,1.22,80.25,1.86,'1111122,1111122,1111122' 
COMPS,ioos:station:USF.COMPS:ARP:1,2014-07-01T13:30:00Z,28.4330,-82.6670,10.0,1.3,104.5,2.35,'1111122,1111122,1111122' 
COMPS,ioos:station:USF.COMPS:ARP:1,2014-07-01T13:36:00Z,28.4330,-82.6670,10.0,1.29,83.16,1.86,'1111122,1111122,1111122' 
COMPS,ioos:station:USF.COMPS:ARP:1,2014-07-01T13:42:00Z,28.4330,-82.6670,10.0,0.66,97.66,1.66,'1111122,1111122,1111122' 
COMPS,ioos:station:USF.COMPS:ARP:1,2014-07-01T13:48:00Z,28.4330,-82.6670,10.0,1.1,67.81,1.86,'1111122,1111122,1111122' 
COMPS,ioos:station:USF.COMPS:ARP:1,2014-07-01T13:54:00Z,28.4330,-82.6670,10.0,0.99,109.82,1.86,'1111122,1111122,1111122' 
COMPS,ioos:station:USF.COMPS:ARP:1,2014-07-01T14:00:00Z,28.4330,-82.6670,10.0,0.43,129.49,1.07,'1111122,1111122,1111122' 
COMPS,ioos:station:USF.COMPS:ARP:1,2014-07-01T14:06:00Z,28.4330,-82.6670,10.0,1.0,98.84,2.05,'1111122,1111122,1111122' 
COMPS,ioos:station:USF.COMPS:ARP:1,2014-07-01T14:12:00Z,28.4330,-82.6670,10.0,0.92,77.72,1.76,'1111122,1111122,1111122' 
COMPS,ioos:station:USF.COMPS:ARP:1,2014-07-01T14:18:00Z,28.4330,-82.6670,10.0,1.29,109.17,2.93,'1111122,1111122,1111122' 
COMPS,ioos:station:USF.COMPS:ARP:1,2014-07-01T14:24:00Z,28.4330,-82.6670,10.0,2.19,71.97,3.23,'1111122,1111122,1111122' 
COMPS,ioos:station:USF.COMPS:ARP:1,2014-07-01T14:30:00Z,28.4330,-82.6670,10.0,1.32,77.44,2.35,'1111122,1111122,1111122' 
COMPS,ioos:station:USF.COMPS:ARP:1,2014-07-01T14:36:00Z,28.4330,-82.6670,10.0,0.9,61.77,1.86,'1111122,1111122,1111122' 
COMPS,ioos:station:USF.COMPS:ARP:1,2014-07-01T14:42:00Z,28.4330,-82.6670,10.0,1.82,85.51,2.74,'1111122,1111122,1111122' 
COMPS,ioos:station:USF.COMPS:ARP:1,2014-07-01T14:48:00Z,28.4330,-82.6670,10.0,0.89,113.57,1.46,'1111122,1111122,1111122' 
COMPS,ioos:station:USF.COMPS:ARP:1,2014-07-01T14:54:00Z,28.4330,-82.6670,10.0,0.25,137.08,0.68,'1111122,1111122,1111122' 
COMPS,ioos:station:USF.COMPS:ARP:1,2014-07-01T15:00:00Z,28.4330,-82.6670,10.0,0.69,314.02,1.76,'1111122,1111122,1111122' 
COMPS,ioos:station:USF.COMPS:ARP:1,2014-07-01T15:06:00Z,28.4330,-82.6670,10.0,1.04,326.39,1.66,'1111122,1111122,1111122' 
COMPS,ioos:station:USF.COMPS:ARP:1,2014-07-01T15:12:00Z,28.4330,-82.6670,10.0,0.95,310.26,2.15,'1111122,1111122,1111122' 
COMPS,ioos:station:USF.COMPS:ARP:1,2014-07-01T15:18:00Z,28.4330,-82.6670,10.0,1.96,317.24,3.33,'1111122,1111122,1111122' 
COMPS,ioos:station:USF.COMPS:ARP:1,2014-07-01T15:24:00Z,28.4330,-82.6670,10.0,3.21,306.07,3.91,'1111122,1111122,1111122' 
COMPS,ioos:station:USF.COMPS:ARP:1,2014-07-01T15:30:00Z,28.4330,-82.6670,10.0,3.2,303.8,3.82,'1111122,1111122,1111122' 
COMPS,ioos:station:USF.COMPS:ARP:1,2014-07-01T15:36:00Z,28.4330,-82.6670,10.0,3.55,306.16,4.01,'1111122,1111122,1111122' 
COMPS,ioos:station:USF.COMPS:ARP:1,2014-07-01T15:42:00Z,28.4330,-82.6670,10.0,3.29,302.76,3.91,'1111122,1111122,1111122' 
COMPS,ioos:station:USF.COMPS:ARP:1,2014-07-01T15:48:00Z,28.4330,-82.6670,10.0,3.51,304.53,4.11,'1111122,1111122,1111122' 
COMPS,ioos:station:USF.COMPS:ARP:1,2014-07-01T15:54:00Z,28.4330,-82.6670,10.0,3.54,303.93,4.21,'1111122,1111122,1111122' 
COMPS,ioos:station:USF.COMPS:ARP:1,2014-07-01T16:00:00Z,28.4330,-82.6670,10.0,2.87,304.63,3.72,'1111122,1111122,1111122' 
COMPS,ioos:station:USF.COMPS:ARP:1,2014-07-01T16:06:00Z,28.4330,-82.6670,10.0,3.33,304.15,4.21,'1111122,1111122,1111122' 
COMPS,ioos:station:USF.COMPS:ARP:1,2014-07-01T16:12:00Z,28.4330,-82.6670,10.0,3.42,302.33,4.01,'1111122,1111122,1111122' 
COMPS,ioos:station:USF.COMPS:ARP:1,2014-07-01T16:18:00Z,28.4330,-82.6670,10.0,3.42,305.3,4.21,'1111122,1111122,1111122' 
COMPS,ioos:station:USF.COMPS:ARP:1,2014-07-01T16:24:00Z,28.4330,-82.6670,10.0,3.95,303.37,4.5,'1111122,1111122,1111122' 
COMPS,ioos:station:USF.COMPS:ARP:1,2014-07-01T16:30:00Z,28.4330,-82.6670,10.0,4.51,306.12,5.19,'1111122,1111122,1111122' 
COMPS,ioos:station:USF.COMPS:ARP:1,2014-07-01T16:36:00Z,28.4330,-82.6670,10.0,4.52,307.3,5.19,'1111122,1111122,1111122' 
COMPS,ioos:station:USF.COMPS:ARP:1,2014-07-01T16:42:00Z,28.4330,-82.6670,10.0,4.53,306.14,5.58,'1111122,1111122,1111122' 
COMPS,ioos:station:USF.COMPS:ARP:1,2014-07-01T16:48:00Z,28.4330,-82.6670,10.0,4.52,308.13,5.78,'1111122,1111122,1111122' 
COMPS,ioos:station:USF.COMPS:ARP:1,2014-07-01T16:54:00Z,28.4330,-82.6670,10.0,4.6,305.6,5.29,'1111122,1111122,1111122' 
COMPS,ioos:station:USF.COMPS:ARP:1,2014-07-01T17:00:00Z,28.4330,-82.6670,10.0,4.79,306.68,6.37,'1111122,1111122,1111122' 
COMPS,ioos:station:USF.COMPS:ARP:1,2014-07-01T17:06:00Z,28.4330,-82.6670,10.0,4.65,308.52,5.97,'1111122,1111122,1111122' 
COMPS,ioos:station:USF.COMPS:ARP:1,2014-07-01T17:12:00Z,28.4330,-82.6670,10.0,5.22,305.28,6.95,'1111122,1111122,1111122' 
COMPS,ioos:station:USF.COMPS:ARP:1,2014-07-01T17:18:00Z,28.4330,-82.6670,10.0,4.82,308.37,6.95,'1111122,1111122,1111122' 
COMPS,ioos:station:USF.COMPS:ARP:1,2014-07-01T17:24:00Z,28.4330,-82.6670,10.0,3.96,310.2,5.48,'1111122,1111122,1111122' 
COMPS,ioos:station:USF.COMPS:ARP:1,2014-07-01T17:30:00Z,28.4330,-82.6670,10.0,3.9,311.31,5.78,'1111122,1111122,1111122' 
COMPS,ioos:station:USF.COMPS:ARP:1,2014-07-01T17:36:00Z,28.4330,-82.6670,10.0,3.36,311.31,5.58,'1111122,1111122,1111122' 
COMPS,ioos:station:USF.COMPS:ARP:1,2014-07-01T17:42:00Z,28.4330,-82.6670,10.0,3.04,309.48,5.39,'1111122,1111122,1111122' 
COMPS,ioos:station:USF.COMPS:ARP:1,2014-07-01T17:48:00Z,28.4330,-82.6670,10.0,3.56,306.89,5.19,'1111122,1111122,1111122' 
COMPS,ioos:station:USF.COMPS:ARP:1,2014-07-01T17:54:00Z,28.4330,-82.6670,10.0,4.58,306.23,6.46,'1111122,1111122,1111122' 
COMPS,ioos:station:USF.COMPS:ARP:1,2014-07-01T18:00:00Z,28.4330,-82.6670,10.0,4.18,306.59,5.68,'1111122,1111122,1111122' 
COMPS,ioos:station:USF.COMPS:ARP:1,2014-07-01T18:06:00Z,28.4330,-82.6670,10.0,4.21,308.65,6.37,'1111122,1111122,1111122' 
COMPS,ioos:station:USF.COMPS:ARP:1,2014-07-01T18:12:00Z,28.4330,-82.6670,10.0,4.64,310.14,6.37,'1111122,1111122,1111122' 
COMPS,ioos:station:USF.COMPS:ARP:1,2014-07-01T18:18:00Z,28.4330,-82.6670,10.0,3.59,311.6,6.46,'1111122,1111122,1111122' 
COMPS,ioos:station:USF.COMPS:ARP:1,2014-07-01T18:24:00Z,28.4330,-82.6670,10.0,3.47,317.57,5.58,'1111122,1111122,1111122' 
COMPS,ioos:station:USF.COMPS:ARP:1,2014-07-01T18:30:00Z,28.4330,-82.6670,10.0,2.94,316.35,4.31,'1111122,1111122,1111122' 
COMPS,ioos:station:USF.COMPS:ARP:1,2014-07-01T18:36:00Z,28.4330,-82.6670,10.0,3.12,311.75,4.99,'1111122,1111122,1111122' 
COMPS,ioos:station:USF.COMPS:ARP:1,2014-07-01T18:42:00Z,28.4330,-82.6670,10.0,3.03,310.56,5.09,'1111122,1111122,1111122' 
COMPS,ioos:station:USF.COMPS:ARP:1,2014-07-01T18:48:00Z,28.4330,-82.6670,10.0,2.58,328.92,5.09,'1111122,1111122,1111122' 
COMPS,ioos:station:USF.COMPS:ARP:1,2014-07-01T18:54:00Z,28.4330,-82.6670,10.0,2.67,317.39,5.19,'1111122,1111122,1111122' 
COMPS,ioos:station:USF.COMPS:ARP:1,2014-07-01T19:00:00Z,28.4330,-82.6670,10.0,2.97,321.9,4.9,'1111122,1111122,1111122' 
COMPS,ioos:station:USF.COMPS:ARP:1,2014-07-01T19:06:00Z,28.4330,-82.6670,10.0,3.54,315.1,5.68,'1111122,1111122,1111122' 
COMPS,ioos:station:USF.COMPS:ARP:1,2014-07-01T19:12:00Z,28.4330,-82.6670,10.0,3.26,317.11,6.85,'1111122,1111122,1111122' 
COMPS,ioos:station:USF.COMPS:ARP:1,2014-07-01T19:18:00Z,28.4330,-82.6670,10.0,3.07,316.32,4.99,'1111122,1111122,1111122' 
COMPS,ioos:station:USF.COMPS:ARP:1,2014-07-01T19:24:00Z,28.4330,-82.6670,10.0,2.91,313.05,6.17,'1111122,1111122,1111122' 
COMPS,ioos:station:USF.COMPS:ARP:1,2014-07-01T19:30:00Z,28.4330,-82.6670,10.0,3.05,317.47,4.8,'1111122,1111122,1111122' 
COMPS,ioos:station:USF.COMPS:ARP:1,2014-07-01T19:36:00Z,28.4330,-82.6670,10.0,2.71,316.35,4.31,'1111122,1111122,1111122' 
COMPS,ioos:station:USF.COMPS:ARP:1,2014-07-01T19:42:00Z,28.4330,-82.6670,10.0,2.88,312.13,5.09,'1111122,1111122,1111122' 
COMPS,ioos:station:USF.COMPS:ARP:1,2014-07-01T19:48:00Z,28.4330,-82.6670,10.0,2.59,313.74,4.5,'1111122,1111122,1111122' 
COMPS,ioos:station:USF.COMPS:ARP:1,2014-07-01T19:54:00Z,28.4330,-82.6670,10.0,2.66,322.97,4.6,'1111122,1111122,1111122' 
COMPS,ioos:station:USF.COMPS:ARP:1,2014-07-01T20:00:00Z,28.4330,-82.6670,10.0,2.42,321.98,4.8,'1111122,1111122,1111122' 